Meteopurmerend
purmerend
Purmerend - Baaienwijk



My webcam  My webcam


waarschuwing voor Onweer Meer informatie blitzortung!


Regen radar Meer informatie rain snow radar


Bezoek onze andere website:

CandyAppleRed WebdesignWebdesign Purmerend Candy Apple Red

MeteopurmerendBlog

Template documentation
and downloads



Onweer van: 19-06-2019 10:00 tot: 23:00 waarschuwing voor: Onweer niveau: Geel info button
Enkele onweersbuien, mogelijk met hagel en windstoten tot ca. 75 km/uur.Verkeer en buitenactiviteiten kunnen hinder ondervinden.Mijd open water en open gebied, schuil niet onder bomen.Volg weerberichten en waarschuwingen.

15 daagse weersverwachting Freiburg (DE)

  • Overzicht
  • Per uur
  • 15 dagen
  • Extra
  • Vergelijk
  • Kaarten
  • Dagkaart
  • Meer »
  • Info
  • Statistieken
  • Directe link
    Temp 6h Neerslag Wind  
 05:30     21:31    Daglengte: 16:01 Vandaag
14:00
27°
 
3
20:00
25°
 
2
 05:30     21:31    Daglengte: 16:01 Morgen
02:00
19°
0.7 mm
2
08:00
19°
2.4 mm
2
14:00
22°
8.6 mm
3
warningclass
20:00
20°
5.1 mm
2
 05:30     21:31    Daglengte: 16:01 Vrijdag 21 Jun
02:00
16°
7.7 mm
1
08:00
17°
 
1
14:00
22°
1.9 mm
3
20:00
20°
 
2
 05:31     21:32    Daglengte: 16:01 Zaterdag 22 Jun
02:00
16°
 
1
08:00
16°
 
1
Locatie info
Region: Baden-Württemberg
Latitude: 47.9959°N
Longitude: 7.8522°E
279 masl
Temp/Neerslag /Baro Onweer/Dauwpunt
    Temp Baro 1h Neerslag Dauwpunt Wind UV Bewolking  
 05:30     21:31    Daglengte: 16:01 Vandaag
14:00
27°
Voelt als: 27.3°
1010.9 hPa   13.6°
3
Windvlaag: 0.1 m/s
18%
15:00
28°
Voelt als: 27.5°
1010.4 hPa   13.9°
3
Windvlaag: 0.5 m/s
5%
16:00
28°
Voelt als: 27.9°
1009.7 hPa   13.9°
3
Windvlaag: 0.5 m/s
7%
17:00
28°
1009.7 hPa   14.3°
3
Windvlaag: 0.8 m/s
9%
18:00
27°
1009.8 hPa   14.7°
3
Windvlaag: 1.3 m/s
9%
19:00
27°
1009.9 hPa
12%
15.2°
2
Windvlaag: 1.3 m/s
13%
20:00
25°
1010.1 hPa
55%
16.2°
2
Windvlaag: 1.4 m/s
26%
21:00
23°
1010.5 hPa
21%
16.4°
2
Windvlaag: 1.3 m/s
51%
22:00
22°
1011.0 hPa
14%
15.2°
2
Windvlaag: 1.7 m/s
55%
23:00
21°
1011.6 hPa
14%
15.0°
2
Windvlaag: 2 m/s
62%
 05:30     21:31    Daglengte: 16:01 Morgen
00:00
21°
1011.8 hPa
14%
14.4°
2
Windvlaag: 1.9 m/s
61%
01:00
20°
1012.2 hPa
16%
15.5°
1
Windvlaag: 1.9 m/s
81%
02:00
19°
1012.8 hPa 0.7 mm
68%
15.5°
2
Windvlaag: 2.5 m/s
81%
03:00
18°
1013.1 hPa 1.3 mm
81%
15.7°
2
Windvlaag: 1.8 m/s
80%
04:00
18°
1013.0 hPa
80%
15.6°
2
Windvlaag: 1.6 m/s
75%
05:00
18°
1012.9 hPa
72%
15.6°
2
Windvlaag: 2 m/s
87%
06:00
18°
1012.9 hPa 1.1 mm
68%
15.7°
2
Windvlaag: 1.9 m/s
43%
07:00
18°
1013.4 hPa
79%
16.2°
2
Windvlaag: 0.9 m/s
39% warningclass
08:00
19°
1013.6 hPa
79%
16.7°
2
Windvlaag: 1.2 m/s
50%
09:00
20°
1013.8 hPa
79%
16.9°
2
Windvlaag: 0.7 m/s
53%
10:00
20°
1013.6 hPa 1.1 mm
79%
16.7°
2
Windvlaag: 0.5 m/s
78%
11:00
21°
1014.1 hPa 4.1 mm
82%
17.1°
2
Windvlaag: 0.8 m/s
61%
12:00
21°
1014.3 hPa 1.1 mm
82%
17.3°
2
Windvlaag: 1.2 m/s
70%
13:00
21°
1014.2 hPa 1.4 mm
82%
16.4°
3
Windvlaag: 1.6 m/s
58% warningclass
14:00
22°
1014.1 hPa 0.9 mm
77%
16.0°
3
Windvlaag: 2 m/s
60% warningclass
15:00
22°
1013.9 hPa
77%
17.0°
3
Windvlaag: 2.3 m/s
39%
16:00
22°
1013.6 hPa 1.9 mm
76%
16.8°
3
Windvlaag: 1.1 m/s
43% warningclass
17:00
22°
1013.5 hPa
82%
16.2°
3
Windvlaag: 1 m/s
28%
18:00
22°
1013.6 hPa
78%
15.9°
3
Windvlaag: 1.7 m/s
36%
19:00
21°
1014.1 hPa 1.8 mm
77%
16.6°
2
Windvlaag: 1.9 m/s
44% warningclass
20:00
20°
1014.7 hPa 1.4 mm
77%
17.1°
2
Windvlaag: 1.5 m/s
48%
21:00
19°
1015.2 hPa 2.3 mm
76%
16.6°
1
Windvlaag: -0.9 m/s
38%
22:00
18°
1015.8 hPa 1.6 mm
70%
16.1°
0
Windvlaag: -0.8 m/s
59% warningclass
23:00
18°
1016.2 hPa
64%
15.6°
1
Windvlaag: 0.1 m/s
52% warningclass
 05:30     21:31    Daglengte: 16:01 Vrijdag 21 Jun
00:00
17°
1016.6 hPa 2.0 mm
62%
15.6°
1
Windvlaag: 0.8 m/s
37%
01:00
17°
1016.8 hPa 1.9 mm
53%
15.6°
1
Windvlaag: 0.7 m/s
52%
02:00
16°
1016.8 hPa
52%
15.4°
1
Windvlaag: 0.5 m/s
54%
03:00
16°
1016.8 hPa
14%
15.3°
1
Windvlaag: 0.6 m/s
43%
04:00
16°
1016.8 hPa
14%
15.0°
1
Windvlaag: 0.6 m/s
23%
05:00
15°
1017.0 hPa
25%
14.7°
1
Windvlaag: 0.7 m/s
38%
06:00
16°
1017.3 hPa
63%
14.7°
1
Windvlaag: 0.9 m/s
35%
07:00
16°
1017.7 hPa
61%
15.1°
1
Windvlaag: 0.8 m/s
58%
08:00
17°
1018.0 hPa
66%
15.1°
1
Windvlaag: -0.4 m/s
52%
09:00
18°
1018.3 hPa
70%
15.2°
2
Windvlaag: -1.2 m/s
38%
10:00
19°
1018.5 hPa 1.9 mm
74%
15.3°
2
Windvlaag: -1.7 m/s
32%
11:00
19°
1018.6 hPa
90%
14.6°
2
Windvlaag: -2 m/s
34%
12:00
20°
1018.6 hPa
90%
14.6°
2
Windvlaag: -2.1 m/s
21%
13:00
21°
1018.1 hPa
95%
14.6°
2
Windvlaag: -2 m/s
16%
14:00
22°
1017.7 hPa
100%
14.8°
3
Windvlaag: -2.3 m/s
68%
15:00
22°
1017.3 hPa
96%
14.7°
3
Windvlaag: -2.3 m/s
68%
16:00
22°
1017.1 hPa
89%
14.5°
3
Windvlaag: -2.2 m/s
47%
17:00
22°
1016.9 hPa
46%
14.6°
3
Windvlaag: -1.9 m/s
60%
18:00
22°
1016.8 hPa
50%
14.1°
3
Windvlaag: -1.8 m/s
60%
19:00
21°
1017.1 hPa
80%
14.7°
2
Windvlaag: -1.8 m/s
77%
20:00
20°
1017.5 hPa
38%
15.0°
2
Windvlaag: -1.7 m/s
89%
21:00
19°
1017.7 hPa
39%
14.5°
2
Windvlaag: -0.9 m/s
93%
22:00
18°
1018.2 hPa
31%
14.8°
1
Windvlaag: -0.3 m/s
86%
23:00
17°
1018.2 hPa
22%
14.6°
1
Windvlaag: -0.1 m/s
84%
 05:31     21:32    Daglengte: 16:01 Zaterdag 22 Jun
00:00
17°
1018.2 hPa
21%
14.0°
2
Windvlaag: 0 m/s
84%
01:00
16°
1017.9 hPa
21%
13.8°
2
Windvlaag: 0.1 m/s
54%
02:00
16°
1017.6 hPa
21%
13.5°
1
Windvlaag: 0 m/s
52%
03:00
15°
1017.4 hPa
21%
13.2°
1
Windvlaag: -0.2 m/s
54%
04:00
14°
1017.2 hPa
21%
12.7°
1
Windvlaag: -0.5 m/s
46%
05:00
14°
1017.0 hPa
21%
12.6°
1
Windvlaag: -0.7 m/s
25%
06:00
14°
1017.1 hPa
21%
12.5°
0
Windvlaag: -0.9 m/s
36%
07:00
15°
1017.2 hPa
21%
13.2°
1
Windvlaag: -0.4 m/s
71%
08:00
16°
1017.4 hPa
62%
14.1°
1
Windvlaag: -0.5 m/s
72%
09:00
17°
1017.3 hPa
21%
14.7°
1
Windvlaag: 3.2 m/s
86%
10:00
18°
1017.1 hPa
21%
15.1°
1
Windvlaag: 3.4 m/s
85%
11:00
19°
1016.8 hPa
21%
15.8°
1
Windvlaag: 3.9 m/s
86%
12:00
20°
1016.6 hPa
74%
16.4°
2
Windvlaag: 2.2 m/s
71%
13:00
21°
1016.4 hPa
90%
16.8°
2
Windvlaag: 3.6 m/s
76%
Temp/Neerslag /Baro Onweer/Dauwpunt
    Temp Baro Neerslag Dauwpunt Wind Bewolking  
 05:30     21:31    Daglengte: 16:01 Vandaag
14:00
27°
Voelt als: 27.3°
1010.9 hPa   13.6°
3
18%
17:00
28°
1009.7 hPa   14.3°
3
9%
20:00
25°
1010.1 hPa   16.2°
2
26%
23:00
21°
1011.6 hPa   15.0°
2
62%
 05:30     21:31    Daglengte: 16:01 Morgen
02:00
19°
1012.8 hPa 0.7 mm 15.5°
2
81%
05:00
18°
1012.9 hPa 1.3 mm 15.6°
2
87%
08:00
19°
1013.6 hPa 1.1 mm 16.7°
2
50%
11:00
21°
1014.1 hPa 5.2 mm 17.1°
2
61%
14:00
22°
1014.1 hPa 3.3 mm 16.0°
3
60% warningclass
17:00
22°
1013.5 hPa 1.9 mm 16.2°
3
28%
20:00
20°
1014.7 hPa 3.2 mm 17.1°
2
48%
23:00
18°
1016.2 hPa 3.8 mm 15.6°
1
52% warningclass
 05:30     21:31    Daglengte: 16:01 Vrijdag 21 Jun
02:00
16°
1016.8 hPa 3.9 mm 15.4°
1
54%
05:00
15°
1017.0 hPa   14.7°
1
38%
08:00
17°
1018.0 hPa   15.1°
1
52%
11:00
19°
1018.6 hPa 1.9 mm 14.6°
2
34%
14:00
22°
1017.7 hPa   14.8°
3
68%
17:00
22°
1016.9 hPa   14.6°
3
60%
20:00
20°
1017.5 hPa   15.0°
2
89%
23:00
17°
1018.2 hPa   14.6°
1
84%
 05:31     21:32    Daglengte: 16:01 Zaterdag 22 Jun
02:00
16°
1017.6 hPa   13.5°
1
52%
05:00
14°
1017.0 hPa   12.6°
1
25%
08:00
16°
1017.4 hPa   14.1°
1
72%
11:00
19°
1016.8 hPa   15.8°
1
86%
14:00
21°
1016.1 hPa 24.8 mm 17.0°
2
81%
17:00
20°
1016.6 hPa 14.6 mm 17.8°
1
91%
20:00
20°
1016.8 hPa 16.8 mm 18.0°
2
92%
23:00
18°
1017.5 hPa 16.8 mm 16.2°
1
88%
 05:31     21:32    Daglengte: 16:01 Zondag 23 Jun
02:00
16°
1018.2 hPa 16.8 mm 14.7°
1
85%
05:00
17°
1018.5 hPa 16.8 mm 15.4°
1
53%
08:00
18°
1018.9 hPa 16.8 mm 16.4°
1
21%
11:00
22°
1018.5 hPa 16.9 mm 16.5°
2
32%
14:00
26°
1018.0 hPa 16.9 mm 15.2°
3
43%
17:00
25°
1017.9 hPa 16.9 mm 16.5°
3
23%
20:00
24°
1017.9 hPa 16.9 mm 17.5°
2
3%
23:00
21°
1018.5 hPa 16.9 mm 16.1°
2
1%
 05:31     21:32    Daglengte: 16:01 Maandag 24 Jun
02:00
18°
1018.9 hPa 16.9 mm 14.7°
2
0%
05:00
19°
1019.1 hPa 16.9 mm 15.3°
1
0%
08:00
20°
1019.3 hPa 16.9 mm 16.3°
0
0%
11:00
24°
1019.0 hPa 16.9 mm 17.7°
1
0%
14:00
28°
1018.8 hPa 16.9 mm 18.1°
1
0%
17:00
28°
1018.8 hPa 16.9 mm 19.0°
2
5%
20:00
27°
1018.8 hPa 16.9 mm 19.7°
2
11%
23:00
23°
1019.6 hPa 16.9 mm 17.4°
3
6%
 05:32     21:32    Daglengte: 16:00 Dinsdag 25 Jun
02:00
20°
1020.3 hPa 16.9 mm 15.3°
3
1%
05:00
20°
1020.7 hPa 16.9 mm 16.0°
2
3%
08:00
21°
1021.1 hPa 16.9 mm 17.1°
1
4%
11:00
25°
1020.9 hPa 16.9 mm 19.6°
1
4%
14:00
28°
1020.7 hPa 16.9 mm 21.9°
2
3%
17:00
28°
1020.2 hPa 16.9 mm 23.0°
1
3%
20:00
28°
1019.7 hPa 16.9 mm 24.0°
0
3%
23:00
24°
1020.2 hPa 16.9 mm 20.2°
2
1%
 05:32     21:32    Daglengte: 16:00 Woensdag 26 Jun
02:00
20°
1020.5 hPa 16.9 mm 16.6°
3
0%
05:00
21°
1020.6 hPa 16.9 mm 17.3°
2
0%
08:00
23°
1020.7 hPa 16.9 mm 18.2°
1
0%
11:00
27°
1020.5 hPa   19.4°
1
0%
14:00
30°
1020.2 hPa 33.8 mm 19.8°
1
0%
20:00
29°
1018.7 hPa 33.8 mm 24.3°
1
0%
 05:32     21:32    Daglengte: 16:00 Donderdag 27 Jun
02:00
20°
1018.9 hPa 33.8 mm 18.8°
2
0%
08:00
25°
1018.6 hPa 33.8 mm 20.9°
1
0%
14:00
33°
1018.2 hPa 33.8 mm 21.6°
1
0%
20:00
31°
1016.5 hPa 33.8 mm 24.1°
1
0%
 05:33     21:32    Daglengte: 15:59 Vrijdag 28 Jun
02:00
21°
1016.9 hPa 34.1 mm 18.4°
2
0%
08:00
26°
1016.6 hPa 36.3 mm 22.4°
1
0%
14:00
33°
1015.7 hPa 48.6 mm 22.1°
1
0%
20:00
31°
1013.5 hPa 52.6 mm 23.8°
0
0%
 05:33     21:32    Daglengte: 15:59 Zaterdag 29 Jun
02:00
23°
1013.4 hPa 54.9 mm 17.1°
3
0%
08:00
20°
1015.8 hPa 55.2 mm 17.4°
1
1%
14:00
26°
1013.0 hPa 0.5 mm 18.0°
1
25%
20:00
24°
1012.9 hPa 0.8 mm 19.8°
1
29%
 05:34     21:31    Daglengte: 15:57 Zondag 30 Jun
02:00
17°
1013.9 hPa 1.9 mm 15.0°
0
33%
08:00
18°
1014.2 hPa 2.6 mm 16.1°
1
40%
14:00
25°
1013.7 hPa 1.6 mm 16.9°
3
40%
20:00
23°
1014.0 hPa 1.4 mm 18.2°
2
28%
 05:35     21:31    Daglengte: 15:56 Maandag 01 Jul
02:00
15°
1015.4 hPa 1.0 mm 13.4°
1
33%
08:00
17°
1015.4 hPa 1.2 mm 15.0°
1
41%
14:00
23°
1014.4 hPa 1.4 mm 15.5°
3
45%
20:00
21°
1014.6 hPa 2.0 mm 17.0°
2
44%
 05:35     21:31    Daglengte: 15:56 Dinsdag 02 Jul
02:00
14°
1015.8 hPa 3.2 mm 12.7°
1
46%
08:00
16°
1015.9 hPa 1.6 mm 13.8°
2
51%
14:00
21°
1014.9 hPa 1.2 mm 14.8°
2
48%
20:00
20°
1015.1 hPa 2.0 mm 16.0°
2
40%
 05:36     21:31    Daglengte: 15:55 Woensdag 03 Jul
02:00
13°
1017.0 hPa 1.6 mm 12.3°
1
40%
08:00
14°
1017.5 hPa 1.7 mm 12.8°
0
51%
14:00
20°
1016.8 hPa 1.4 mm 13.6°
1
52%
20:00
19°
1016.8 hPa 1.6 mm 15.1°
1
49%
 05:37     21:30    Daglengte: 15:53 Donderdag 04 Jul
02:00
12°
1017.9 hPa 1.6 mm 10.7°
0
39%
08:00
14°
1018.0 hPa 1.3 mm 12.5°
0
50%
  CAPE Lifted Index Hail Supercell Tornado SRH 3km CL BTM PRES CL TOP PRES Swiss DWD icon SMHI TS
 05:30     21:31    Daglengte: 16:01 Vandaag
14:00 0 J/kg -0.5 K 0 % 0 % 0 % 0 m²/s² 0 0 2.05 1
15:00 317 J/kg -1.9 K 0 % 0 % 0 % 0 m²/s² 0 0 0.35 1
16:00 733 J/kg -3.1 K 0 % 0 % 0 % 0 m²/s² 0 0 -1.84 0
17:00 993 J/kg -4.0 K 0 % 0 % 0 % 0 m²/s² 0 0 -2.8 1
18:00 1248 J/kg -5.0 K 0 % 0 % 0 % 0 m²/s² 0 0 -4.1 1
19:00 1350 J/kg -5.3 K 0 % 0 % 0 % 0 m²/s² 0 0 -4.58 1
20:00 1437 J/kg -4.7 K 0 % 0 % 0 % 0 m²/s² 0 0 -3.65 2
21:00 1658 J/kg -5.1 K 0 % 0 % 0 % 0 m²/s² 0 0 -4.11 2
22:00 1248 J/kg -3.9 K 0 % 0 % 0 % 0 m²/s² 0 0 -2.64 1
23:00 644 J/kg -3.2 K 0 % 0 % 0 % 0 m²/s² 0 0 -2.45 3
 05:30     21:31    Daglengte: 16:01 Morgen
00:00 261 J/kg -2.2 K 0 % 0 % 0 % 0 m²/s² 0 0 -1.39 3
01:00 280 J/kg -3.0 K 0 % 0 % 0 % 0 m²/s² 0 0 -2.52 3
02:00 280 J/kg -2.9 K 0 % 0 % 0 % 0 m²/s² 0 0 -2.33 80
03:00 0 J/kg -0.9 K 0 % 0 % 0 % 0 m²/s² 0 0 -0.63 3
04:00 0 J/kg -1.3 K 0 % 0 % 0 % 0 m²/s² 0 0 -0.4 3
05:00 0 J/kg 0.5 K 0 % 0 % 0 % 0 m²/s² 0 0 1.22 3
06:00 0 J/kg 0.8 K 0 % 0 % 0 % 0 m²/s² 0 0 2.21 2
07:00 4 J/kg 0.2 K 0 % 0 % 0 % 0 m²/s² 0 0 1.28 95
08:00 103 J/kg -0.9 K 0 % 0 % 0 % 0 m²/s² 0 0 0.39 3
09:00 121 J/kg -0.7 K 0 % 0 % 0 % 0 m²/s² 0 0 1.07 3
10:00 294 J/kg -1.6 K 0 % 0 % 0 % 0 m²/s² 0 0 0.23 3
11:00 547 J/kg -2.4 K 0 % 0 % 0 % 0 m²/s² 0 0 -0.57 3
12:00 819 J/kg -3.6 K 0 % 0 % 0 % 0 m²/s² 0 0 -1.71 80
13:00 1039 J/kg -4.2 K 0 % 0 % 0 % 0 m²/s² 0 0 -2.19 80
14:00 1236 J/kg -5.0 K 0 % 0 % 0 % 0 m²/s² 0 0 -3.35 2
15:00 1224 J/kg -4.7 K 0 % 0 % 0 % 0 m²/s² 0 0 -3.35 1
16:00 1094 J/kg -4.2 K 0 % 0 % 0 % 0 m²/s² 0 0 -2.31 1
17:00 864 J/kg -3.5 K 0 % 0 % 0 % 0 m²/s² 0 0 -1.34 2
18:00 766 J/kg -3.5 K 0 % 0 % 0 % 0 m²/s² 0 0 -1.28 2
19:00 779 J/kg -3.3 K 0 % 0 % 0 % 0 m²/s² 0 0 -0.93 95
20:00 881 J/kg -3.6 K 0 % 0 % 0 % 0 m²/s² 0 0 -1.65 80
21:00 947 J/kg -3.6 K 0 % 0 % 0 % 0 m²/s² 0 0 -1.77 80
22:00 846 J/kg -3.3 K 0 % 0 % 0 % 0 m²/s² 0 0 -1.53 95
23:00 660 J/kg -2.4 K 0 % 0 % 0 % 0 m²/s² 0 0 -0.81 95
 05:30     21:31    Daglengte: 16:01 Vrijdag 21 Jun
00:00 486 J/kg -1.8 K 0 % 0 % 0 % 0 m²/s² 0 0 -0.27 80
01:00 199 J/kg -1.0 K 0 % 0 % 0 % 0 m²/s² 0 0 1.07 80
02:00 74 J/kg -0.8 K 0 % 0 % 0 % 0 m²/s² 0 0 1.33 3
03:00 16 J/kg -0.8 K 0 % 0 % 0 % 0 m²/s² 0 0 1.27 3
04:00 0 J/kg -0.5 K 0 % 0 % 0 % 0 m²/s² 0 0 1.57 2
05:00 0 J/kg -0.3 K 0 % 0 % 0 % 0 m²/s² 0 0 1.83 80
06:00 0 J/kg -0.3 K 0 % 0 % 0 % 0 m²/s² 0 0 1.65 80
07:00 2 J/kg -0.2 K 0 % 0 % 0 % 0 m²/s² 0 0 1.6 80
08:00 9 J/kg 0.0 K 0 % 0 % 0 % 0 m²/s² 0 0 2.01 80
09:00 131 J/kg -0.5 K 0 % 0 % 0 % 0 m²/s² 0 0 1.72 3
10:00 377 J/kg -1.6 K 0 % 0 % 0 % 0 m²/s² 0 0 0.41 3
11:00 413 J/kg -1.7 K 0 % 0 % 0 % 0 m²/s² 0 0 0.37 80
12:00 354 J/kg -1.5 K 0 % 0 % 0 % 0 m²/s² 0 0 0.51 2
13:00 313 J/kg -1.2 K 0 % 0 % 0 % 0 m²/s² 0 0 1.02 2
14:00 379 J/kg -1.4 K 0 % 0 % 0 % 0 m²/s² 0 0 1.27 2
15:00 579 J/kg -1.8 K 0 % 0 % 0 % 0 m²/s² 0 0 1.53 2
16:00 709 J/kg -2.1 K 0 % 0 % 0 % 0 m²/s² 0 0 0.72 1
17:00 670 J/kg -2.3 K 0 % 0 % 0 % 0 m²/s² 0 0 -0.08 1
18:00 624 J/kg -2.6 K 0 % 0 % 0 % 0 m²/s² 0 0 -1.07 1
19:00 646 J/kg -3.3 K 0 % 0 % 0 % 0 m²/s² 0 0 -2.1 1
20:00 543 J/kg -2.9 K 0 % 0 % 0 % 0 m²/s² 0 0 -1.91 2
21:00 217 J/kg -1.6 K 0 % 0 % 0 % 0 m²/s² 0 0 -1.12 3
22:00 206 J/kg -0.9 K 0 % 0 % 0 % 0 m²/s² 0 0 -0.9 2
23:00 20 J/kg 0.4 K 0 % 0 % 0 % 0 m²/s² 0 0 0.79 2
 05:31     21:32    Daglengte: 16:01 Zaterdag 22 Jun
00:00 20 J/kg -0.4 K 0 % 0 % 0 % 0 m²/s² 0 0 -0.19 3
01:00 0 J/kg -0.3 K 0 % 0 % 0 % 0 m²/s² 0 0 0.06 3
02:00 0 J/kg 0.8 K 0 % 0 % 0 % 0 m²/s² 0 0 1.07 3
03:00 0 J/kg 0.2 K 0 % 0 % 0 % 0 m²/s² 0 0 0.65 3
04:00 0 J/kg 0.1 K 0 % 0 % 0 % 0 m²/s² 0 0 0.67 2
05:00 0 J/kg 1.0 K 0 % 0 % 0 % 0 m²/s² 0 0 1.48 2
06:00 0 J/kg 1.5 K 0 % 0 % 0 % 0 m²/s² 0 0 1.8 1
07:00 0 J/kg 1.2 K 0 % 0 % 0 % 0 m²/s² 0 0 1.41 3
08:00 0 J/kg 0.6 K 0 % 0 % 0 % 0 m²/s² 0 0 0.63 3
09:00 145 J/kg -0.7 K 0 % 0 % 0 % 0 m²/s² 0 0 -0.7 3
10:00 213 J/kg -1.2 K 0 % 0 % 0 % 0 m²/s² 0 0 -1.08 3
11:00 284 J/kg -1.4 K 0 % 0 % 0 % 0 m²/s² 0 0 -1.31 3
12:00 484 J/kg -2.0 K 0 % 0 % 0 % 0 m²/s² 0 0 -1.79 3
13:00 718 J/kg -2.4 K 0 % 0 % 0 % 0 m²/s² 0 0 -1.35 3
Temp Baro Wind Neerslag
  EWN Forecast EWN WRFDA DWD ICON FMI HIRLAM MET Norway GFS
 05:30     21:31    Daglengte: 16:01 Vandaag
14:00 27.4° 1010.9 hPa 3.2 m/s 0.0 mm 26.4° 1010.7 hPa 3.3 m/s 0.0 mm 27.6° 1010.8 hPa 3.7 m/s -2.0 mm 30.8° 1010.2 hPa 3.4 m/s 0.0 mm 27.0° 1010.9 hPa 2.7 m/s 0.8 mm 27.2° 1011.5 hPa 2.6 m/s
17:00 27.7° 1009.7 hPa 3.4 m/s 0.0 mm 27.5° 1009.2 hPa 1.9 m/s 0.0 mm 27.6° 1010.0 hPa 3.6 m/s 0.0 mm 31.1° 1009.2 hPa 4.0 m/s 0.0 mm 27.3° 1009.7 hPa 3.5 m/s 0.0 mm 27.7° 1010.1 hPa 3.0 m/s
20:00 25.2° 1010.1 hPa 1.7 m/s 0.0 mm 26.0° 1008.7 hPa 1.7 m/s 0.8 mm 24.3° 1010.0 hPa 1.5 m/s 0.0 mm 27.9° 1009.7 hPa 2.7 m/s 0.0 mm 25.0° 1010.4 hPa 1.4 m/s 0.0 mm 23.8° 1010.6 hPa 2.2 m/s
23:00 21.1° 1011.6 hPa 1.8 m/s 0.0 mm 21.6° 1010.3 hPa 2.7 m/s 3.3 mm 20.0° 1011.9 hPa 2.0 m/s 0.0 mm 22.7° 1011.3 hPa 2.6 m/s 0.0 mm 21.0° 1011.7 hPa 0.5 m/s 0.0 mm 19.9° 1012.9 hPa 2.5 m/s
 05:30     21:31    Daglengte: 16:01 Morgen
02:00 19.0° 1012.8 hPa 1.6 m/s 0.7 mm 19.2° 1012.5 hPa 5.1 m/s 4.3 mm 18.0° 1013.7 hPa 0.5 m/s 0.8 mm 19.2° 1012.4 hPa 1.2 m/s 0.0 mm 18.9° 1012.7 hPa 1.5 m/s 0.4 mm 17.6° 1013.6 hPa 2.5 m/s
05:00 17.6° 1012.9 hPa 2.0 m/s 1.3 mm 16.4° 1012.8 hPa 3.5 m/s 8.3 mm 17.5° 1012.6 hPa 1.3 m/s 0.6 mm 17.8° 1013.0 hPa 1.5 m/s 0.0 mm 17.6° 1012.9 hPa 2.3 m/s 1.9 mm 16.9° 1013.5 hPa 2.2 m/s
08:00 19.2° 1013.6 hPa 1.6 m/s 1.1 mm 18.7° 1012.8 hPa 2.8 m/s 12.2 mm 18.1° 1013.8 hPa 1.7 m/s 0.9 mm 19.9° 1013.6 hPa 0.9 m/s 0.0 mm 19.3° 1013.7 hPa 1.8 m/s 0.0 mm 17.7° 1014.5 hPa 2.7 m/s
11:00 20.6° 1014.1 hPa 2.3 m/s 5.2 mm 21.6° 1012.9 hPa 3.5 m/s 12.2 mm 19.9° 1014.7 hPa 2.9 m/s 0.5 mm 22.6° 1013.3 hPa 0.9 m/s 0.0 mm 19.5° 1014.4 hPa 2.3 m/s 8.6 mm 19.9° 1015.2 hPa 3.4 m/s
14:00 22.0° 1014.1 hPa 2.6 m/s 3.3 mm 23.6° 1012.8 hPa 3.7 m/s 12.4 mm 21.2° 1015.2 hPa 4.1 m/s 0.4 mm 26.2° 1012.6 hPa 0.8 m/s 0.0 mm 21.7° 1014.2 hPa 2.6 m/s 1.7 mm 22.3° 1014.9 hPa 3.4 m/s
17:00 22.1° 1013.5 hPa 2.9 m/s 1.9 mm 23.3° 1012.1 hPa 2.4 m/s 17.1 mm 21.8° 1014.4 hPa 4.8 m/s 0.1 mm 22.6° 1013.1 hPa 1.5 m/s 0.0 mm 22.4° 1013.4 hPa 3.5 m/s 0.5 mm 22.8° 1014.0 hPa 3.4 m/s
20:00 20.1° 1014.7 hPa 1.8 m/s 3.2 mm 21.2° 1013.3 hPa 2.1 m/s 20.6 mm 18.4° 1016.2 hPa 0.4 m/s 1.6 mm 20.8° 1013.9 hPa 1.3 m/s 0.0 mm 19.9° 1014.7 hPa 2.0 m/s 0.5 mm 19.7° 1015.1 hPa 1.8 m/s
23:00 17.7° 1016.2 hPa 0.8 m/s 3.8 mm 19.2° 1014.8 hPa 0.6 m/s 24.5 mm 16.2° 1017.0 hPa 0.5 m/s 1.0 mm 18.5° 1015.9 hPa 0.5 m/s 0.0 mm 17.6° 1016.1 hPa 1.0 m/s 1.0 mm 16.4° 1016.7 hPa 0.7 m/s
 05:30     21:31    Daglengte: 16:01 Vrijdag 21 Jun
02:00 16.4° 1016.8 hPa 1.0 m/s 3.9 mm 15.6° 1015.1 hPa 0.9 m/s 25.3 mm 15.0° 1017.1 hPa 1.0 m/s 1.0 mm 17.1° 1016.5 hPa 1.0 m/s 0.0 mm 16.6° 1016.8 hPa 0.8 m/s 0.4 mm 14.5° 1016.8 hPa 0.8 m/s
05:00 15.4° 1017.0 hPa 1.2 m/s 0.0 mm 14.3° 1015.3 hPa 1.7 m/s 25.3 mm 14.2° 1017.4 hPa 0.8 m/s 0.0 mm 15.7° 1016.3 hPa 0.9 m/s 0.0 mm 16.3° 1017.1 hPa 1.2 m/s 0.0 mm 13.7° 1017.0 hPa 0.7 m/s
08:00 16.8° 1018.0 hPa 1.1 m/s 0.0 mm 17.3° 1015.9 hPa 1.9 m/s 25.3 mm 15.4° 1018.3 hPa 0.4 m/s 0.8 mm 17.9° 1016.6 hPa 1.1 m/s 0.0 mm 16.9° 1018.2 hPa 1.7 m/s 0.0 mm 16.7° 1017.9 hPa 1.0 m/s
11:00 19.2° 1018.6 hPa 2.3 m/s 1.9 mm 20.9° 1016.1 hPa 3.5 m/s 25.4 mm 18.7° 1018.7 hPa 1.0 m/s 0.6 mm 19.1° 1019.0 hPa 2.2 m/s 0.3 mm 19.6° 1018.1 hPa 2.1 m/s
14:00 21.8° 1017.7 hPa 2.7 m/s 0.0 mm 23.5° 1014.9 hPa 3.7 m/s 25.4 mm 21.0° 1017.9 hPa 2.0 m/s 0.1 mm 21.8° 1017.9 hPa 2.6 m/s 0.0 mm 22.0° 1017.3 hPa 3.2 m/s
17:00 22.3° 1016.9 hPa 2.8 m/s 0.0 mm 24.1° 1013.3 hPa 4.8 m/s 25.5 mm 22.2° 1017.2 hPa 1.8 m/s 0.0 mm 22.0° 1017.5 hPa 2.7 m/s 0.0 mm 22.5° 1016.9 hPa 3.5 m/s
20:00 20.5° 1017.5 hPa 1.9 m/s 0.0 mm 22.5° 1013.2 hPa 4.0 m/s 26.2 mm 20.4° 1017.8 hPa 1.9 m/s 0.0 mm 19.9° 1018.3 hPa 1.2 m/s 0.5 mm 19.7° 1017.1 hPa 2.4 m/s
23:00 17.4° 1018.2 hPa 1.5 m/s 0.0 mm 17.8° 1014.5 hPa 2.6 m/s 41.2 mm 16.8° 1018.7 hPa 0.9 m/s 0.0 mm 17.4° 1018.9 hPa 1.3 m/s 0.5 mm 16.3° 1018.0 hPa 2.1 m/s
 05:31     21:32    Daglengte: 16:01 Zaterdag 22 Jun
02:00 15.9° 1017.6 hPa 1.3 m/s 0.0 mm 17.5° 1013.6 hPa 2.7 m/s 68.6 mm 14.8° 1018.4 hPa 0.6 m/s 0.0 mm 15.6° 1018.2 hPa 1.0 m/s 0.0 mm 15.4° 1017.5 hPa 1.8 m/s
05:00 14.4° 1017.0 hPa 0.9 m/s 0.0 mm 14.8° 1013.1 hPa 1.1 m/s 70.8 mm 13.2° 1018.2 hPa 0.8 m/s 0.0 mm 14.1° 1017.5 hPa 0.7 m/s 0.0 mm 14.3° 1016.3 hPa 1.5 m/s
08:00 16.5° 1017.4 hPa 1.0 m/s 0.0 mm 17.0° 1013.3 hPa 1.8 m/s 70.8 mm 15.3° 1018.7 hPa 1.2 m/s 0.0 mm 16.7° 1017.8 hPa 0.8 m/s 0.0 mm 16.4° 1017.1 hPa 1.4 m/s
11:00 19.0° 1016.8 hPa 1.5 m/s 0.0 mm 18.2° 1014.1 hPa 2.4 m/s 71.5 mm 19.0° 1017.6 hPa 1.8 m/s 0.0 mm 19.1° 1017.0 hPa 1.0 m/s 19.7° 1017.1 hPa 2.0 m/s
14:00 21.4° 1016.1 hPa 1.9 m/s 24.8 mm 21.3° 1013.3 hPa 4.8 m/s 72.4 mm 21.2° 1016.9 hPa 2.2 m/s 0.9 mm 21.6° 1016.3 hPa 1.1 m/s 20.4° 1017.0 hPa 1.4 m/s
17:00 20.5° 1016.6 hPa 1.5 m/s 14.6 mm 20.3° 1016.6 hPa 1.5 m/s 21.9° 1016.7 hPa 1.5 m/s 14.6 mm
20:00 19.8° 1016.8 hPa 1.7 m/s 16.8 mm 19.7° 1016.7 hPa 1.7 m/s 20.8° 1017.7 hPa 1.5 m/s 16.8 mm
23:00 17.5° 1017.5 hPa 1.5 m/s 16.8 mm 17.7° 1017.4 hPa 1.4 m/s 15.5° 1018.8 hPa 2.9 m/s 16.8 mm
 05:31     21:32    Daglengte: 16:01 Zondag 23 Jun
02:00 15.6° 1018.2 hPa 1.1 m/s 16.8 mm 15.7° 1018.1 hPa 1.0 m/s 14.6° 1018.9 hPa 1.6 m/s 16.8 mm
05:00 16.8° 1018.5 hPa 1.0 m/s 16.8 mm 17.0° 1018.5 hPa 1.1 m/s 14.0° 1018.6 hPa 1.0 m/s 16.8 mm
08:00 18.3° 1018.9 hPa 1.1 m/s 16.8 mm 18.4° 1018.9 hPa 1.1 m/s 17.1° 1018.9 hPa 1.2 m/s 16.8 mm
11:00 22.0° 1018.5 hPa 2.2 m/s 16.9 mm 21.9° 1018.5 hPa 2.3 m/s 22.5° 1018.5 hPa 1.4 m/s 16.9 mm
14:00 25.6° 1018.0 hPa 3.4 m/s 16.9 mm 25.5° 1018.0 hPa 3.5 m/s 26.1° 1017.6 hPa 1.9 m/s 16.9 mm
17:00 25.0° 1017.9 hPa 2.8 m/s 16.9 mm 24.8° 1018.0 hPa 2.9 m/s 27.7° 1017.0 hPa 2.4 m/s 16.9 mm
20:00 24.1° 1017.9 hPa 2.3 m/s 16.9 mm 24.1° 1017.9 hPa 2.2 m/s 24.4° 1018.0 hPa 2.8 m/s 16.9 mm
23:00 20.9° 1018.5 hPa 2.1 m/s 16.9 mm 21.0° 1018.3 hPa 2.0 m/s 19.3° 1019.6 hPa 3.2 m/s 16.9 mm
 05:31     21:32    Daglengte: 16:01 Maandag 24 Jun
02:00 17.9° 1018.9 hPa 1.8 m/s 16.9 mm 17.9° 1018.8 hPa 1.8 m/s 17.4° 1019.8 hPa 1.9 m/s 16.9 mm
05:00 18.6° 1019.1 hPa 1.1 m/s 16.9 mm 18.8° 1019.0 hPa 1.1 m/s 15.8° 1019.7 hPa 1.7 m/s 16.9 mm
08:00 19.7° 1019.3 hPa 0.3 m/s 16.9 mm 19.7° 1019.2 hPa 0.3 m/s 19.6° 1020.4 hPa 0.1 m/s 16.9 mm
11:00 24.0° 1019.0 hPa 0.8 m/s 16.9 mm 23.9° 1019.0 hPa 0.8 m/s 24.8° 1020.0 hPa 1.5 m/s 16.9 mm
14:00 28.2° 1018.8 hPa 1.3 m/s 16.9 mm 28.2° 1018.7 hPa 1.2 m/s 27.8° 1019.4 hPa 2.0 m/s 16.9 mm
17:00 27.5° 1018.8 hPa 1.8 m/s 16.9 mm 27.4° 1018.8 hPa 1.9 m/s 28.7° 1019.1 hPa 1.7 m/s 16.9 mm
20:00 26.6° 1018.8 hPa 2.4 m/s 16.9 mm 26.6° 1018.8 hPa 2.5 m/s 26.7° 1019.2 hPa 1.1 m/s 16.9 mm
23:00 23.1° 1019.6 hPa 3.0 m/s 16.9 mm 23.2° 1019.5 hPa 3.0 m/s 21.0° 1020.7 hPa 3.0 m/s 16.9 mm
 05:32     21:32    Daglengte: 16:00 Dinsdag 25 Jun
02:00 19.8° 1020.3 hPa 3.3 m/s 16.9 mm 19.9° 1020.3 hPa 3.4 m/s 19.1° 1020.8 hPa 2.2 m/s 16.9 mm
05:00 20.3° 1020.7 hPa 2.2 m/s 16.9 mm 20.6° 1020.7 hPa 2.2 m/s 17.6° 1020.3 hPa 1.5 m/s 16.9 mm
08:00 21.3° 1021.1 hPa 1.0 m/s 16.9 mm 21.3° 1021.1 hPa 1.1 m/s 21.2° 1020.5 hPa 0.4 m/s 16.9 mm
11:00 24.8° 1020.9 hPa 1.5 m/s 16.9 mm 24.6° 1021.0 hPa 1.5 m/s 26.4° 1020.2 hPa 1.3 m/s 16.9 mm
14:00 28.0° 1020.7 hPa 1.9 m/s 16.9 mm 27.9° 1020.8 hPa 1.9 m/s 29.7° 1019.9 hPa 1.8 m/s 16.9 mm
17:00 28.3° 1020.2 hPa 1.1 m/s 16.9 mm 28.1° 1020.2 hPa 1.0 m/s 30.4° 1019.6 hPa 1.4 m/s 16.9 mm
20:00 28.4° 1019.7 hPa 0.2 m/s 16.9 mm 28.4° 1019.7 hPa 0.2 m/s 28.2° 1020.0 hPa 0.8 m/s 16.9 mm
23:00 24.2° 1020.2 hPa 1.9 m/s 16.9 mm 24.3° 1020.0 hPa 1.8 m/s 22.7° 1021.5 hPa 2.8 m/s 16.9 mm
 05:32     21:32    Daglengte: 16:00 Woensdag 26 Jun
02:00 20.2° 1020.5 hPa 3.3 m/s 16.9 mm 20.2° 1020.4 hPa 3.4 m/s 20.7° 1021.1 hPa 2.2 m/s 16.9 mm
05:00 21.4° 1020.6 hPa 2.1 m/s 16.9 mm 21.5° 1020.5 hPa 2.1 m/s 19.3° 1020.8 hPa 1.6 m/s 16.9 mm
08:00 22.9° 1020.7 hPa 0.8 m/s 16.9 mm 22.9° 1020.7 hPa 0.8 m/s 22.5° 1020.8 hPa 0.6 m/s 16.9 mm
11:00 26.6° 1020.5 hPa 1.0 m/s 16.9 mm 26.6° 1020.5 hPa 1.0 m/s 27.1° 1020.4 hPa 1.4 m/s 16.9 mm
14:00 30.3° 1020.2 hPa 1.3 m/s 16.9 mm 30.3° 1020.3 hPa 1.2 m/s 30.6° 1019.4 hPa 1.8 m/s 16.9 mm
20:00 29.2° 1018.7 hPa 0.6 m/s 16.9 mm 29.2° 1018.8 hPa 0.5 m/s 28.7° 1018.0 hPa 1.4 m/s 16.9 mm
 05:32     21:32    Daglengte: 16:00 Donderdag 27 Jun
02:00 20.5° 1018.9 hPa 1.8 m/s 16.9 mm 20.4° 1018.9 hPa 1.8 m/s 21.2° 1018.4 hPa 1.9 m/s 16.9 mm
08:00 25.3° 1018.6 hPa 0.7 m/s 16.9 mm 25.4° 1018.7 hPa 0.7 m/s 24.1° 1018.1 hPa 0.6 m/s 16.9 mm
14:00 32.5° 1018.2 hPa 1.2 m/s 16.9 mm 32.6° 1018.4 hPa 1.2 m/s 31.4° 1016.4 hPa 1.4 m/s 16.9 mm
20:00 31.3° 1016.5 hPa 0.7 m/s 16.9 mm 31.5° 1016.6 hPa 0.7 m/s 28.6° 1015.1 hPa 0.8 m/s 16.9 mm
 05:33     21:32    Daglengte: 15:59 Vrijdag 28 Jun
02:00 21.2° 1016.9 hPa 2.1 m/s 17.0 mm 21.1° 1017.0 hPa 2.2 m/s 22.9° 1016.2 hPa 1.4 m/s 17.0 mm
08:00 26.1° 1016.6 hPa 1.2 m/s 19.2 mm 26.3° 1016.6 hPa 1.1 m/s 24.1° 1016.0 hPa 1.9 m/s 19.2 mm
14:00 32.7° 1015.7 hPa 1.3 m/s 24.8 mm 33.2° 1015.7 hPa 1.2 m/s 27.3° 1015.4 hPa 2.6 m/s 24.8 mm
20:00 31.5° 1013.5 hPa 0.4 m/s 26.6 mm 32.1° 1013.4 hPa 0.2 m/s 24.8° 1014.7 hPa 2.3 m/s 26.6 mm
 05:33     21:32    Daglengte: 15:59 Zaterdag 29 Jun
02:00 22.9° 1013.4 hPa 2.7 m/s 27.6 mm 23.3° 1013.1 hPa 2.8 m/s 18.9° 1016.6 hPa 1.3 m/s 27.6 mm
08:00 19.8° 1015.8 hPa 1.3 m/s 27.6 mm 19.8° 1015.8 hPa 1.3 m/s 27.6 mm
14:00 26.5° 1013.0 hPa 0.9 m/s 0.5 mm
20:00 24.4° 1012.9 hPa 1.2 m/s 0.8 mm
 05:34     21:31    Daglengte: 15:57 Zondag 30 Jun
02:00 16.8° 1013.9 hPa 0.3 m/s 1.9 mm
08:00 18.3° 1014.2 hPa 1.2 m/s 2.6 mm
14:00 24.6° 1013.7 hPa 2.7 m/s 1.6 mm
20:00 22.6° 1014.0 hPa 1.7 m/s 1.4 mm
 05:35     21:31    Daglengte: 15:56 Maandag 01 Jul
02:00 15.0° 1015.4 hPa 0.7 m/s 1.0 mm
08:00 16.8° 1015.4 hPa 0.8 m/s 1.2 mm
14:00 22.6° 1014.4 hPa 2.6 m/s 1.4 mm
20:00 20.7° 1014.6 hPa 1.8 m/s 2.0 mm
 05:35     21:31    Daglengte: 15:56 Dinsdag 02 Jul
02:00 14.2° 1015.8 hPa 1.3 m/s 3.2 mm
08:00 15.7° 1015.9 hPa 1.7 m/s 1.6 mm
14:00 21.3° 1014.9 hPa 2.3 m/s 1.2 mm
20:00 19.7° 1015.1 hPa 1.7 m/s 2.0 mm
 05:36     21:31    Daglengte: 15:55 Woensdag 03 Jul
02:00 13.4° 1017.0 hPa 0.7 m/s 1.6 mm
08:00 14.4° 1017.5 hPa 0.4 m/s 1.7 mm
14:00 20.0° 1016.8 hPa 1.5 m/s 1.4 mm
20:00 19.2° 1016.8 hPa 1.2 m/s 1.6 mm
 05:37     21:30    Daglengte: 15:53 Donderdag 04 Jul
02:00 12.2° 1017.9 hPa 0.5 m/s 1.6 mm
08:00 14.5° 1018.0 hPa 0.5 m/s 1.3 mm
FMI Hirlam - 7.5 km EWN WRFDA - 12 km DWD ICON - 7 km GFS - 25 km Basiskaart






























































Updatetijd (Europe/Amsterdam) Resolutie Lengte Stap
FMI Hirlam 13:00, 19:00, 01:00, 07:00 7.5 km 49h 1h
EWN WRFDA 10:15, 16:15, 22:15, 04:15 12 km 73h 1h
DWD ICON 11:45, 17:45, 23:45, 05:45 7 km 75h 1h
GFS 08:45, 14:45, 20:45, 02:45 25 km 237h 3h
30+ mm
25-30 mm
20-25 mm
15-20 mm
10-15 mm
6-10 mm
4-6 mm
2-4 mm
1-2 mm
0.5-1 mm
0.2-0.5 mm
0.1-0.2 mm
30+ mm
25-30 mm
20-25 mm
15-20 mm
10-15 mm
6-10 mm
4-6 mm
2-4 mm
1-2 mm
0.5-1 mm
0.2-0.5 mm
0.1-0.2 mm
Sneeuwval
Natte sneeuw
Hagel
Vorst
30+ mm
25-30 mm
20-25 mm
15-20 mm
10-15 mm
6-10 mm
4-6 mm
2-4 mm
1-2 mm
0.5-1 mm
0.2-0.5 mm
0.1-0.2 mm
Sneeuwval
Natte sneeuw
Hagel
Vorst
Onweer
50 mm
40 mm
30 mm
26 mm
22 mm
18 mm
14 mm
10 mm
9 mm
8 mm
7 mm
6 mm
5 mm
4.5 mm
4 mm
3.5 mm
3 mm
2.5 mm
2 mm
1.5 mm
1 mm
0.8 mm
0.6 mm
0.4 mm
0.2 mm
0.05 mm
35°
30°
25°
20°
15°
10°